Weather in Krasnoselskoye

Russia / The Kabardino-Balkar Republic     43°56′05″N   44°01′57″E
temp.,
°C
wind,
m/s
gust,
m/s
humid.,
%
clouds,
%
prec.,
mm/h
press.,
hPa
HPBL,
m
2 march, tue
tue200:00+1sw1279100 0.0 102922
03:000sw128299 0.0 102922
06:000wsw128729 0.0 103021
09:00+3wnw126914 0.0 1029271
12:00+6nw22540 0.0 1027957
15:00+8w24440 0.0 10251522
18:00+5nw33600 0.0 102545
21:00+2nw22830 0.0 102528
3 march, wed
wed300:00+2sw33841 0.0 102339
03:00+1wnw228227 0.0 102222
06:00+1sw1187100 0.0 102122
09:00+3ssw2274100 0.0 1020175
12:00+5sse2165100 0.0 1019731
15:00+7w355399 0.0 10181434
18:00+2nw6990100 0.3 1021816
21:00+2wnw61179100 0.4 1025944
4 march, thu
thu400:000nw5128076 0.0 1027762
03:00−1wnw4118044 0.0 1028623
06:00−1w38820 0.0 1028304
09:00+2wsw35600 0.0 1028745
12:00+5sw23500 0.0 10261212
15:00+7sw23400 0.0 10241279
18:00+4sw12540 0.0 102423
21:00+2sw11730 0.0 102422
5 march, fri
fri500:00+1ese01760 0.0 102322
03:00+1se11750 0.0 102222
06:000sse11750 0.0 102222
09:00+4sse34550 0.0 1021290
12:00+8se34390 0.0 1019689
15:00+10se33360 0.0 1019754
18:00+7se33510 0.0 102029
21:00+4se33610 0.0 102135
6 march, sat
sat600:00+3sse23650 0.0 102022
03:00+3s23680 0.0 101924
06:00+2ssw33670 0.0 101825
09:00+6s355117 0.0 1017156
12:00+14sse353026 0.0 1015448
15:00+16sse452560 0.0 1013582
18:00+12se1236100 0.0 101322
21:00+9nne3350100 0.0 101437